Terug naar catalogus

STARLINK-31691

ActiefCommunicatieVLEO
NORAD 59856·PAYLOAD·🇺🇸 United States

Gelanceerd May 23, 2024 vanaf Cape Canaveral Space Force Station

Loading…

Volgende Passages (komende 24 uur)

TLE

VersSource: CelesTrak SupGP

Epoch: Sep 15, 2026, 02:08 UTC

1 59856C 24097X   26258.08937500  .00013946  00000+0  50499-3 0  2580
2 59856  43.0030 284.3172 0001378 267.7416 239.3765 15.27580101    10

Volg STARLINK-31691 in realtime met AllMySat

Download on the App Store